timestamp,surface_pressure_avg,surface_temp_avg,battery_voltage,lat,long
2019-05-31 00:00:00+00:00,270.153,6.5,13.21,47.84626,-54.09684
2019-05-31 00:10:00+00:00,258.5497,6.53,13.05,47.84626,-54.09684
2019-05-31 00:20:00+00:00,254.7931,6.57,13.05,47.84626,-54.09684
2019-05-31 00:30:00+00:00,260.2047,6.5,13.05,47.84626,-54.09684
2019-05-31 00:40:00+00:00,256.3831,6.5,13.05,47.84626,-54.09684
2019-05-31 00:50:00+00:00,243.6498,6.58,13.05,47.84626,-54.09684
2019-05-31 01:00:00+00:00,240.3081,6.6,12.97,47.84626,-54.09684
2019-05-31 01:10:00+00:00,242.4615,6.6,12.81,47.84626,-54.09684
2019-05-31 01:20:00+00:00,232.9931,6.4,12.97,47.84626,-54.09684
2019-05-31 01:30:00+00:00,220.5464,6.5,12.97,47.84626,-54.09684
2019-05-31 01:40:00+00:00,222.2664,6.4,12.97,47.84626,-54.09684
2019-05-31 01:50:00+00:00,222.2131,6.16,12.97,47.84626,-54.09684
2019-05-31 02:00:00+00:00,217.7064,6.0,12.89,47.84626,-54.09684
2019-05-31 02:10:00+00:00,210.9014,6.31,12.81,47.84626,-54.09684
2019-05-31 02:20:00+00:00,207.8514,6.38,12.89,47.84626,-54.09684
2019-05-31 02:30:00+00:00,204.8331,5.89,12.89,47.84626,-54.09684
2019-05-31 02:40:00+00:00,202.6148,6.09,12.89,47.84626,-54.09684
2019-05-31 02:50:00+00:00,201.5098,6.3,12.97,47.84626,-54.09684
2019-05-31 03:00:00+00:00,204.4498,5.95,12.81,47.84626,-54.09684
2019-05-31 03:10:00+00:00,211.3181,5.91,12.81,47.84626,-54.09684
2019-05-31 03:20:00+00:00,214.2764,6.2,12.89,47.84626,-54.09684
2019-05-31 03:30:00+00:00,208.8232,5.9,12.89,47.84626,-54.09684
2019-05-31 03:40:00+00:00,206.0931,5.8,12.89,47.84626,-54.09684
2019-05-31 03:50:00+00:00,209.1864,5.5,12.89,47.84626,-54.09684
2019-05-31 04:00:00+00:00,210.753,5.5,12.81,47.84626,-54.09684
2019-05-31 04:10:00+00:00,209.2397,5.57,12.73,47.84626,-54.09684
2019-05-31 04:20:00+00:00,211.6965,5.5,12.81,47.84626,-54.09684
2019-05-31 04:30:00+00:00,218.0648,5.5,12.81,47.84626,-54.09684
2019-05-31 04:40:00+00:00,224.9564,5.49,12.89,47.84626,-54.09684
2019-05-31 04:50:00+00:00,225.5064,5.43,12.89,47.84626,-54.09684
2019-05-31 05:00:00+00:00,224.0215,5.79,12.81,47.84626,-54.09684
2019-05-31 05:10:00+00:00,226.8581,5.91,12.73,47.84626,-54.09684
2019-05-31 05:20:00+00:00,238.8864,5.3,12.81,47.84626,-54.09684
2019-05-31 05:30:00+00:00,244.2364,5.46,12.81,47.84626,-54.09684
2019-05-31 05:40:00+00:00,241.4931,5.5,12.81,47.84626,-54.09684
2019-05-31 05:50:00+00:00,238.3731,5.38,12.81,47.84626,-54.09684
2019-05-31 06:00:00+00:00,243.3347,5.3,12.81,47.84626,-54.09684
2019-05-31 06:10:00+00:00,249.7331,5.3,12.73,47.84626,-54.09684
2019-05-31 06:20:00+00:00,252.9897,5.3,12.81,47.84626,-54.09684
2019-05-31 06:30:00+00:00,255.2248,5.26,12.81,47.84626,-54.09684
2019-05-31 06:40:00+00:00,264.0298,5.22,12.81,47.84626,-54.09684
2019-05-31 06:50:00+00:00,272.193,5.2,12.81,47.84626,-54.09684
2019-05-31 07:00:00+00:00,274.638,5.17,12.73,47.84626,-54.09684
2019-05-31 07:10:00+00:00,278.6298,5.1,12.65,47.84626,-54.09684
2019-05-31 07:20:00+00:00,290.0747,5.06,12.73,47.84626,-54.09684
2019-05-31 07:30:00+00:00,293.833,5.1,12.73,47.84626,-54.09684
2019-05-31 07:40:00+00:00,294.948,5.19,12.73,47.84626,-54.09684
2019-05-31 07:50:00+00:00,301.8163,5.2,12.81,47.84626,-54.09684
2019-05-31 08:00:00+00:00,317.5647,5.29,12.73,47.84626,-54.09684
2019-05-31 08:10:00+00:00,318.2847,5.38,12.65,47.84626,-54.09684
2019-05-31 08:20:00+00:00,313.4163,5.4,12.73,47.84626,-54.09684
2019-05-31 08:30:00+00:00,312.7913,5.22,12.73,47.84626,-54.09684
2019-05-31 08:40:00+00:00,316.6379,5.06,12.81,47.84626,-54.09684
2019-05-31 08:50:00+00:00,318.4346,5.1,12.81,47.84626,-54.09684
2019-05-31 09:00:00+00:00,320.1896,5.19,12.73,47.84626,-54.09684
2019-05-31 09:10:00+00:00,317.618,5.2,12.65,47.84626,-54.09684
2019-05-31 09:20:00+00:00,314.4447,5.25,12.73,47.84626,-54.09684
2019-05-31 09:30:00+00:00,314.4329,5.3,12.81,47.84626,-54.09684
2019-05-31 09:40:00+00:00,316.6396,5.33,12.89,47.84626,-54.09684
2019-05-31 09:50:00+00:00,317.8463,5.39,12.97,47.84626,-54.09684
2019-05-31 10:00:00+00:00,317.1796,5.39,12.89,47.84626,-54.09684
2019-05-31 10:10:00+00:00,321.313,5.4,12.89,47.84626,-54.09684
2019-05-31 10:20:00+00:00,318.9263,5.39,12.97,47.84626,-54.09684
2019-05-31 10:30:00+00:00,313.0847,5.38,13.05,47.84626,-54.09684
2019-05-31 10:40:00+00:00,302.3997,5.39,13.29,47.84626,-54.09684
2019-05-31 10:50:00+00:00,303.8397,5.39,13.37,47.84626,-54.09684
2019-05-31 11:00:00+00:00,303.093,5.4,13.37,47.84626,-54.09684
2019-05-31 11:10:00+00:00,301.3713,5.4,13.29,47.84626,-54.09684
2019-05-31 11:20:00+00:00,298.5614,5.4,13.44,47.84626,-54.09684
2019-05-31 11:30:00+00:00,295.1097,5.4,13.6,47.84626,-54.09684
2019-05-31 11:40:00+00:00,292.6147,5.47,13.84,47.84626,-54.09684
2019-05-31 11:50:00+00:00,290.168,5.5,14.0,47.84626,-54.09684
2019-05-31 12:00:00+00:00,286.0547,5.5,14.0,47.84626,-54.09684
2019-05-31 12:10:00+00:00,275.5047,5.5,14.0,47.84626,-54.09684
2019-05-31 12:20:00+00:00,266.1014,5.5,14.32,47.84626,-54.09684
2019-05-31 12:30:00+00:00,261.2847,5.5,14.56,47.84626,-54.09684
2019-05-31 12:40:00+00:00,254.0931,5.5,14.72,47.84626,-54.09684
2019-05-31 12:50:00+00:00,245.7848,5.5,14.88,47.84626,-54.09684
2019-05-31 13:00:00+00:00,241.2531,5.5,14.64,47.84626,-54.09684
2019-05-31 13:10:00+00:00,240.9364,5.5,14.56,47.84626,-54.09684
2019-05-31 13:20:00+00:00,235.3664,5.5,14.8,47.84626,-54.09684
2019-05-31 13:30:00+00:00,226.5781,5.5,14.8,47.84626,-54.09684
2019-05-31 13:40:00+00:00,228.2164,5.5,14.96,47.84626,-54.09684
2019-05-31 13:50:00+00:00,233.0698,5.5,14.88,47.84626,-54.09684
2019-05-31 14:00:00+00:00,226.6014,5.5,14.72,47.84626,-54.09684
2019-05-31 14:10:00+00:00,218.2314,5.5,14.64,47.84626,-54.09684
2019-05-31 14:20:00+00:00,214.9049,5.55,14.72,47.84626,-54.09684
2019-05-31 14:30:00+00:00,212.5681,5.56,14.8,47.84626,-54.09684
2019-05-31 14:40:00+00:00,207.8398,5.57,14.8,47.84626,-54.09684
2019-05-31 14:50:00+00:00,202.9198,5.56,14.72,47.84626,-54.09684
2019-05-31 15:00:00+00:00,203.1248,5.5,14.64,47.84626,-54.09684
2019-05-31 15:10:00+00:00,204.5398,5.5,14.64,47.84626,-54.09684
2019-05-31 15:20:00+00:00,202.0148,5.5,14.72,47.84626,-54.09684
2019-05-31 15:30:00+00:00,202.6198,5.5,14.64,47.84626,-54.09684
2019-05-31 15:40:00+00:00,209.6181,5.53,14.56,47.84626,-54.09684
2019-05-31 15:50:00+00:00,215.4732,5.58,14.48,47.84626,-54.09684
2019-05-31 16:00:00+00:00,212.8515,5.6,14.4,47.84626,-54.09684
2019-05-31 16:10:00+00:00,208.7481,5.67,14.32,47.84626,-54.09684
2019-05-31 16:20:00+00:00,207.1313,5.7,14.48,47.84626,-54.09684
2019-05-31 16:30:00+00:00,204.7014,5.78,14.48,47.84626,-54.09684
2019-05-31 16:40:00+00:00,202.0515,5.8,14.56,47.84626,-54.09684
2019-05-31 16:50:00+00:00,202.4364,5.86,14.56,47.84626,-54.09684
2019-05-31 17:00:00+00:00,213.7465,5.89,14.48,47.84626,-54.09684
2019-05-31 17:10:00+00:00,225.9314,5.79,14.32,47.84626,-54.09684
2019-05-31 17:20:00+00:00,232.7047,5.53,14.32,47.84626,-54.09684
2019-05-31 17:30:00+00:00,243.5781,5.5,14.32,47.84626,-54.09684
2019-05-31 17:40:00+00:00,249.608,5.5,14.32,47.84626,-54.09684
2019-05-31 17:50:00+00:00,246.4764,5.45,14.32,47.84626,-54.09684
2019-05-31 18:00:00+00:00,249.6648,5.49,14.24,47.84626,-54.09684
2019-05-31 18:10:00+00:00,257.6864,5.4,14.16,47.84626,-54.09684
2019-05-31 18:20:00+00:00,259.588,5.39,14.24,47.84626,-54.09684
2019-05-31 18:30:00+00:00,250.293,5.4,14.24,47.84626,-54.09684
2019-05-31 18:40:00+00:00,255.5698,5.4,14.24,47.84626,-54.09684
2019-05-31 18:50:00+00:00,258.3464,5.4,14.24,47.84626,-54.09684
2019-05-31 19:00:00+00:00,260.4614,5.49,14.16,47.84626,-54.09684
2019-05-31 19:10:00+00:00,277.0764,5.4,14.08,47.84626,-54.09684
2019-05-31 19:20:00+00:00,300.328,5.4,14.16,47.84626,-54.09684
2019-05-31 19:30:00+00:00,302.683,5.4,14.24,47.84626,-54.09684
2019-05-31 19:40:00+00:00,301.033,5.4,14.24,47.84626,-54.09684
2019-05-31 19:50:00+00:00,311.4797,5.4,14.16,47.84626,-54.09684
2019-05-31 20:00:00+00:00,319.848,5.4,14.0,47.84626,-54.09684
2019-05-31 20:10:00+00:00,315.4046,5.43,13.92,47.84626,-54.09684
2019-05-31 20:20:00+00:00,326.1229,5.5,13.84,47.84626,-54.09684
2019-05-31 20:30:00+00:00,335.603,5.5,13.84,47.84626,-54.09684
2019-05-31 20:40:00+00:00,328.463,5.68,13.84,47.84626,-54.09684
2019-05-31 20:50:00+00:00,323.5213,5.77,13.76,47.84626,-54.09684
2019-05-31 21:00:00+00:00,338.2229,5.7,13.68,47.84626,-54.09684
2019-05-31 21:10:00+00:00,346.0246,5.3,13.53,47.84626,-54.09684
2019-05-31 21:20:00+00:00,335.2031,5.37,13.53,47.84626,-54.09684
2019-05-31 21:30:00+00:00,340.9913,5.3,13.44,47.84626,-54.09684
2019-05-31 21:40:00+00:00,352.5262,5.26,13.44,47.84626,-54.09684
2019-05-31 21:50:00+00:00,345.6364,5.24,13.44,47.84626,-54.09684
2019-05-31 22:00:00+00:00,338.6713,5.2,13.37,47.84626,-54.09684
2019-05-31 22:10:00+00:00,345.5978,5.0,13.21,47.84626,-54.09684
2019-05-31 22:20:00+00:00,345.1013,5.06,13.21,47.84626,-54.09684
2019-05-31 22:30:00+00:00,332.2014,5.18,13.13,47.84626,-54.09684
2019-05-31 22:40:00+00:00,331.3979,5.2,13.13,47.84626,-54.09684
2019-05-31 22:50:00+00:00,331.6579,5.18,13.13,47.84626,-54.09684
2019-05-31 23:00:00+00:00,320.8264,5.2,13.05,47.84626,-54.09684
2019-05-31 23:10:00+00:00,314.9981,5.2,12.89,47.84626,-54.09684
2019-05-31 23:20:00+00:00,326.6197,5.22,12.97,47.84626,-54.09684
2019-05-31 23:30:00+00:00,332.4031,5.23,12.97,47.84626,-54.09684
2019-05-31 23:40:00+00:00,317.308,5.3,12.97,47.84626,-54.09684
2019-05-31 23:50:00+00:00,304.2847,5.4,12.97,47.84626,-54.09684
